Regional Weather Roundup
Issued by NWS

Home | Current Version | Previous Version | Graphics & Text | Print | Product List | Glossary On
Versions: 1 2 3 4 5 6 7 8 9 10 11 12 13 14 15 16 17 18 19 20 21 22 23 24 25 26 27 28
000
ASUS45 KTFX 262010
RWRMT
MONTANA REGIONAL WEATHER ROUNDUP
NATIONAL WEATHER SERVICE GREAT FALLS MT
200 PM MDT TUE JUL 26 2016

NOTE: "FAIR" INDICATES FEW OR NO CLOUDS BELOW 12000 FEET WITH NO
SIGNIFICANT WEATHER AND/OR OBSTRUCTIONS TO VISIBILITY.

MTZ001>007-043-262100-
WEST OF THE DIVIDE

CITY           SKY/WX    TMP DP  RH WIND       PRES   REMARKS
KALISPELL      MOSUNNY   83  52  34 NW9G17    30.06F
MISSOULA       MOSUNNY   89  44  20 MISG      30.05F
BUTTE          CLOUDY    82  33  17 N8        30.17F
MULLAN PASS    PTSUNNY   73  49  42 VRB3      30.26R
ANACONDA         N/A     79  46  31 N9        30.14F
DEER LODGE       N/A     81  45  28 CALM      30.15F
EUREKA           N/A     66  59  77 N5        30.13F
HAMILTON         N/A     79  48  34 CALM      30.07F
LIBBY            N/A     79  52  38 NW10G17   30.09F
PLAINS           N/A     87  51  28 W12       30.04R
RONAN            N/A     83  54  36 N8        30.10S
$$

MTZ008-052>055-262100-
SOUTHWEST MONTANA

CITY           SKY/WX    TMP DP  RH WIND       PRES   REMARKS
BOZEMAN        SUNNY     86  38  18 NW7       30.11F
DILLON         SUNNY     78  47  33 CALM      30.13S
W YELLOWSTONE  CLOUDY    81  27  13 N9        30.24F
ENNIS          SUNNY     86  30  13 VRB3      30.18F
THREE FORKS      N/A     86  86 100 CALM      30.08F HX 112
TWIN BRIDGES     N/A     87  37  17 NW8       30.10F
$$

MTZ009-010-012-014-046-048-049-054-262100-
EAST SLOPES AND CENTRAL MONTANA

CITY           SKY/WX    TMP DP  RH WIND       PRES   REMARKS
CUT BANK         N/A     84  53  34 SE14      30.06F
GREAT FALLS    SUNNY     86  47  25 SE8       30.05F
MALMSTROM AFB  SUNNY     85  44  24 SE3       30.05F
HELENA         CLOUDY    88  48  25 VRB7      30.06F
CHOTEAU          N/A     82  52  34 S9        30.09S
$$

MTZ011-013-016-021-045-047-050-051-262100-
NORTH CENTRAL MONTANA

CITY           SKY/WX    TMP DP  RH WIND       PRES   REMARKS
HAVRE          SUNNY     86  58  38 E9        30.03S
LEWISTOWN      SUNNY     84  50  30 VRB5      30.11F
N BAR RANCH      N/A     81  46  30 VRB6G12   30.14S
CHINOOK          N/A     82  61  47 E7        30.03F
$$

MTZ017>020-022>027-061-062-262100-
NORTHEAST MONTANA

CITY           SKY/WX    TMP DP  RH WIND       PRES   REMARKS
GLASGOW        MOSUNNY   82  61  48 E16       30.05F
JORDAN           N/A     87  52  29 E10G17    30.05F
SIDNEY         CLOUDY    77  65  66 NE7       30.07F
WOLF POINT     CLOUDY    77  62  59 E16       30.08F
PLENTYWOOD       N/A     72  54  53 NE8       30.12S
POPLAR           N/A     72  63  73 NE13      30.09F
$$

MTZ028>42-056>058-262100-
SOUTHCENTRAL AND SOUTHEAST MONTANA

CITY           SKY/WX    TMP DP  RH WIND       PRES   REMARKS
BAKER          SUNNY     82  57  42 NE15      30.08S
BILLINGS       MOSUNNY   88  44  21 VRB6      30.06F
LIVINGSTON     SUNNY     90  37  15 E5        30.09F
MILES CITY     SUNNY     88  53  30 NE12      30.04S
FORSYTH          N/A     88  54  31 E6        30.03S
LAUREL           N/A     89  46  22 NE8       30.05F
ROUNDUP          N/A     87  49  26 CALM      29.98F
$$

REGIONAL REPORTS...DAKOTAS

CITY           SKY/WX    TMP DP  RH WIND       PRES   REMARKS
WILLISTON      CLOUDY    79  59  50 N15       30.07F
MINOT          CLOUDY    82  65  56 NW14      30.04R
DICKINSON      CLOUDY    74  61  63 N13       30.05S
BEACH            N/A     77  55  47 E10       30.10F
CROSBY           N/A     72  64  78 E5        30.11F
WATFORD CITY     N/A    N/A N/A N/A MISG        N/A
BISMARCK       CLOUDY    80  66  62 N14G24    29.96R
GRAND FORKS    MOSUNNY   86  64  47 NE10      29.94F
FARGO          MOSUNNY   85  68  56 NW3       29.94R
BUFFALO SD       N/A     85  57  38 N9        29.99F
RAPID CITY     SUNNY     87  57  35 S9        30.03F
$$

REGIONAL REPORTS...WYOMING/IDAHO/WASHINGTON

CITY           SKY/WX    TMP DP  RH WIND       PRES   REMARKS
GILLETTE       SUNNY     89  44  20 N14G21    30.09F
SHERIDAN       SUNNY     90  44  20 VRB6      30.07F
BUFFALO WY     SUNNY     87  42  20 E9        30.15F
CODY           SUNNY     82  46  28 NE9G17    30.15F
YELLOWSTONE LA   N/A     73  35  25 VRB3      30.35F
IDAHO FALLS    MOSUNNY   92  33  12 NE5       30.09F
SALMON         CLOUDY    79  48  34 W5        30.09S
BOISE          SUNNY     93  41  16 NW6       29.99F
SPOKANE        PTSUNNY   83  52  34 E15       30.06F
$$

REGIONAL REPORTS...ALBERTA

CITY           SKY/WX    TMP DP  RH WIND       PRES   REMARKS
EDMONTON       MOSUNNY   75  57  53 E2        30.05F
CALGARY        PTSUNNY   75  55  50 NE12      30.11S
LETHBRIDGE     CLOUDY    75  63  64 N8        30.06F
MEDICINE HAT   MOSUNNY   88  57  35 CALM      30.04F
CARDSTON         N/A     64  59  82 NW14G24     N/A
MILK RIVER       N/A     81  55  41 E12         N/A
ONEFOUR          N/A     82  48  30 SE6         N/A
$$

REGIONAL REPORTS...SASKATCHEWAN

CITY           SKY/WX    TMP DP  RH WIND       PRES   REMARKS
SWIFT CURRENT  MOSUNNY   73  57  56 E9        30.12F
REGINA         PTSUNNY   75  52  43 NE10G17   30.11F
SASKATOON      CLOUDY    75  48  38 VRB2      30.14F
CYPRESS HILLS    N/A     72  55  56 SE8         N/A
VAL MARIE        N/A     64  57  77 E7          N/A
ROCKGLEN         N/A     66  57  72 SE8         N/A
$$




USA.gov is the U.S. government's official web portal to all federal, state and local government web resources and services.